Regional Weather Roundup
Issued by NWS Cleveland, OH

Home | Current Version | Previous Version | Graphics & Text | Print | Product List | Glossary On
Versions: 1 2 3 4 5 6 7 8 9 10 11 12 13 14 15 16 17 18 19 20 21 22 23 24 25 26 27 28 29 30 31 32 33 34 35 36 37 38 39 40 41 42 43 44 45 46 47 48 49 50
000
ASUS41 KCLE 200210
RWRCLE
OHIO REGIONAL WEATHER ROUNDUP
NATIONAL WEATHER SERVICE CLEVELAND, OH
900 PM EST SUN NOV 19 2017

NOTE: "FAIR" INDICATES FEW OR NO CLOUDS BELOW 12,000 FEET WITH NO
SIGNIFICANT WEATHER AND/OR OBSTRUCTIONS TO VISIBILITY.

OHZ001>008-015>018-024>027-034-035-043-044-200300-
   NORTHWEST OHIO

CITY           SKY/WX    TMP DP  RH WIND       PRES   REMARKS
DEFIANCE       CLEAR     30  22  72 SW5       30.05R WCI  25
FINDLAY        CLOUDY    33  23  66 W12       30.03S WCI  24
TOLEDO EXPRESS MOCLDY    32  23  69 W10       30.02R WCI  24
TOLEDO EXEC    CLOUDY    32  21  64 W12       30.02S WCI  23
LIMA           CLOUDY    30  25  81 W14       30.05S WCI  19
$$

OHZ009>014-019>023-028>033-038-089-200300-
   NORTHEAST OHIO

CITY           SKY/WX    TMP DP  RH WIND       PRES   REMARKS
CLE-HOPKINS    FLURRIES  34  25  69 W15       30.00R WCI  24
CLE-LAKEFRONT  CLOUDY    36  25  64 W28G35    29.97R
CUY CO. ARPT   CLOUDY    37  23  56 W22G31    29.96R
LORAIN-ELYRIA  CLOUDY    32  20  61 W14G23    30.00R WCI  22
ASHTABULA      CLOUDY    32  27  81 W7        29.92S WCI  26
AKRON-CANTON   FLURRIES  33  24  69 W10       29.98R WCI  25
WOOSTER        CLOUDY    31  22  69 W16       30.00R WCI  20
MANSFIELD      CLOUDY    31  20  63 W15G22    30.01R WCI  20
YOUNGSTOWN     FLURRIES  31  25  78 W12G22    29.93R WCI  22
$$

OHZ042-051>053-060>062-070>072-077>081-200300-
  SOUTHWEST OHIO

CITY           SKY/WX    TMP DP  RH WIND       PRES   REMARKS
CINC-COVINGTON CLEAR     28  25  88 W5        30.13S WCI  23
CINC-LUNKEN    CLEAR     31  24  75 CALM      30.17R
HAMILTON       CLEAR     28  25  88 CALM      30.16R
DAYTON         MOCLDY    28  23  81 W10       30.12R WCI  19
WRIGHT-PAT AFB CLOUDY    30  22  73 W9        30.12R WCI  21
DAYTON GENERAL CLEAR     28  22  78 W3        30.11S
WILMINGTON     CLEAR     28  23  81 W8        30.11S WCI  20
$$

OHZ036-037-039>041-045>050-054>059-063>069-073>076-082>088-200300-
  CENTRAL AND SOUTHEAST OHIO

CITY           SKY/WX    TMP DP  RH WIND       PRES   REMARKS
COLUMBUS       CLOUDY    32  21  64 W15       30.08R WCI  22
OSU AIRPORT    CLOUDY    31  22  69 W15G21    30.07S WCI  20
BOLTON FIELD   CLOUDY    31  21  67 W9        30.09S WCI  23
RICKENBACK AFB CLOUDY    31  20  64 NW13G23   30.10S WCI  21
NEWARK         CLOUDY    33  21  61 W15G24    30.06R WCI  23
MARION         CLOUDY    32  24  72 W13       30.05R WCI  22
LANCASTER      MOCLDY    31  21  66 W13       30.09S WCI  21
ZANESVILLE     CLOUDY    33  22  63 W12G20    30.06R WCI  24
NEW PHILLY     NOT AVBL
$$




USA.gov is the U.S. government's official web portal to all federal, state and local government web resources and services.